Location: Freiburg+im+Breisgau
(48.0359°N, 7.8195°E)
Time: 20:37:06
(UTC+01:00)

Tiangong 2 - Visible Passes

Search period start: 17 February 2018 00:00
Search period end: 27 February 2018 00:00
Orbit: 385 x 388 km, 42.8° (Epoch: 17 February)

Date Brightness Start Highest point End Pass type
(mag) Time Alt. Az. Time Alt. Az. Time Alt. Az.
17 Feb 2.4 19:32:45 10° WSW 19:35:35 29° S 19:36:10 27° SSE visible
18 Feb 2.5 18:33:55 10° WSW 18:36:47 31° S 18:39:39 10° ESE visible
18 Feb 3.5 20:10:42 10° WSW 20:12:22 18° SW 20:12:22 18° SW visible
19 Feb 2.9 19:11:40 10° WSW 19:14:20 25° SSW 19:16:19 14° SE visible
20 Feb 3.6 19:49:58 10° WSW 19:51:45 14° SSW 19:52:37 13° S visible
21 Feb 3.4 18:50:39 10° WSW 18:53:02 19° SSW 18:55:23 10° SSE visible
